DW6881 Weather Reports


time (UTC)temp
C
wind
direction
speed
KPH
gust
KPH
rain 1hr
cm
rain 24hr
cm
rain mn
cm
humidity
%
barometer
mb
20260504050452 5 223 0.0 0.0 0.00 0.00 0.00 84 1009.7
20260504045944 5 223 0.0 0.0 0.00 0.00 0.00 84 1010.0
20260504045443 5 223 0.0 0.0 0.00 0.00 0.00 83 1010.0
20260504044946 5 223 0.0 0.0 0.00 0.00 0.00 83 1010.0
20260504043921 5 223 0.0 1.6 0.00 0.00 0.00 82 1009.9
20260504042855 5 223 0.0 1.6 0.00 0.00 0.00 80 1009.9
20260504042350 5 223 0.0 1.6 0.00 0.00 0.00 80 1009.9
20260504041839 5 223 0.0 1.6 0.00 0.00 0.00 79 1009.9
20260504041319 5 223 0.0 3.2 0.00 0.00 0.00 79 1010.0
20260504040818 5 223 0.0 3.2 0.00 0.00 0.00 78 1010.0
20260504040307 5 223 0.0 3.2 0.00 0.00 0.00 77 1010.0
20260504035802 5 223 0.0 3.2 0.00 0.00 0.00 77 1009.9
20260504035258 5 223 0.0 0.0 0.00 0.00 0.00 77 1009.9
20260504034750 5 223 0.0 0.0 0.00 0.00 0.00 76 1010.0
20260504034244 5 223 0.0 0.0 0.00 0.00 0.00 76 1009.8
20260504033744 5 223 0.0 0.0 0.00 0.00 0.00 75 1009.8
20260504033237 6 223 0.0 1.6 0.00 0.00 0.00 75 1009.8
20260504032735 6 223 0.0 1.6 0.00 0.00 0.00 75 1009.9
20260504031733 6 223 0.0 0.0 0.00 0.00 0.00 74 1009.9
20260504031231 6 223 0.0 0.0 0.00 0.00 0.00 73 1010.0
20260504030707 6 223 0.0 0.0 0.00 0.00 0.00 72 1010.1
20260504025655 6 223 0.0 0.0 0.00 0.00 0.00 72 1010.3
20260504025148 7 223 0.0 0.0 0.00 0.00 0.00 71 1010.3
20260504024641 7 223 0.0 0.0 0.00 0.00 0.00 71 1010.3
20260504024130 7 223 0.0 0.0 0.00 0.00 0.00 71 1010.4
20260504023630 7 223 0.0 0.0 0.00 0.00 0.00 71 1010.4
20260504022110 7 223 0.0 0.0 0.00 0.00 0.00 69 1010.5
20260504021555 8 223 0.0 0.0 0.00 0.00 0.00 68 1010.5
20260504021045 8 223 0.0 0.0 0.00 0.00 0.00 68 1010.5
20260504020537 8 223 0.0 0.0 0.00 0.00 0.00 67 1010.5
20260504020026 8 223 0.0 0.0 0.00 0.00 0.00 66 1010.6
20260504015522 8 223 0.0 0.0 0.00 0.00 0.00 64 1010.6
20260504015017 9 223 0.0 0.0 0.00 0.00 0.00 63 1010.6
20260504014508 9 223 0.0 0.0 0.00 0.00 0.00 62 1010.7
20260504013953 10 223 0.0 0.0 0.00 0.00 0.00 61 1010.6
20260504013440 10 223 0.0 0.0 0.00 0.00 0.00 60 1010.6
20260504012933 10 223 0.0 0.0 0.00 0.00 0.00 57 1010.6
20260504011927 10 223 0.0 0.0 0.00 0.00 0.00 55 1010.6
20260504011430 11 223 0.0 3.2 0.00 0.00 0.00 53 1010.7
20260504010917 11 223 0.0 3.2 0.00 0.00 0.00 54 1010.8
20260504010356 11 223 0.0 0.0 0.00 0.00 0.00 52 1010.8
20260504005332 11 223 0.0 0.0 0.00 0.00 0.00 49 1010.8
20260504004830 12 223 0.0 0.0 0.00 0.00 0.00 48 1010.8
20260504004314 12 223 0.0 0.0 0.00 0.00 0.00 47 1010.6
20260504003811 12 223 0.0 0.0 0.00 0.00 0.00 45 1010.7
20260504003301 12 223 0.0 0.0 0.00 0.00 0.00 43 1010.7
20260504002802 12 223 0.0 0.0 0.00 0.00 0.00 42 1010.8
20260504002303 13 223 0.0 3.2 0.00 0.00 0.00 41 1010.8
20260504001744 13 223 0.0 3.2 0.00 0.00 0.00 40 1010.8
20260504001238 13 223 0.0 3.2 0.00 0.00 0.00 40 1010.9
20260504000731 13 223 0.0 3.2 0.00 0.00 0.00 39 1010.9
20260504000222 13 223 1.6 4.8 0.00 0.00 0.00 39 1010.9
20260503235211 13 223 4.8 9.7 0.00 0.00 0.00 38 1011.0
20260503234707 13 223 6.4 14.5 0.00 0.00 0.00 38 1011.0
20260503234201 13 223 4.8 14.5 0.00 0.00 0.00 38 1011.2
20260503233654 13 223 4.8 11.3 0.00 0.00 0.00 38 1011.2
20260503233141 13 223 6.4 17.7 0.00 0.00 0.00 37 1011.2
20260503232636 13 223 9.7 19.3 0.00 0.00 0.00 36 1011.3
20260503232129 13 233 9.7 19.3 0.00 0.00 0.00 36 1011.3
20260503231625 13 231 8.0 19.3 0.00 0.00 0.00 36 1011.3
20260503231117 13 271 8.0 17.7 0.00 0.00 0.00 36 1011.4
20260503230611 14 257 11.3 20.9 0.00 0.00 0.00 35 1011.4
20260503225556 14 224 9.7 20.9 0.00 0.00 0.00 36 1011.4
20260503224544 14 236 11.3 22.5 0.00 0.00 0.00 35 1011.4
20260503224037 14 229 11.3 22.5 0.00 0.00 0.00 35 1011.5
20260503223530 14 201 11.3 24.1 0.00 0.00 0.00 35 1011.5
20260503223024 14 272 12.9 24.1 0.00 0.00 0.00 36 1011.5
20260503222518 14 253 11.3 24.1 0.00 0.00 0.00 36 1011.7
20260503222012 14 231 9.7 20.9 0.00 0.00 0.00 34 1011.7
20260503221505 14 235 9.7 19.3 0.00 0.00 0.00 34 1011.5
20260503220956 15 267 8.0 17.7 0.00 0.00 0.00 35 1011.5
20260503220443 15 224 8.0 17.7 0.00 0.00 0.00 38 1011.5
20260503215937 15 220 9.7 19.3 0.00 0.00 0.00 35 1011.6
20260503215429 14 231 9.7 19.3 0.00 0.00 0.00 35 1011.6
20260503214929 14 233 9.7 17.7 0.00 0.00 0.00 35 1011.6
20260503213925 15 218 9.7 24.1 0.00 0.00 0.00 33 1011.5
20260503213427 15 217 9.7 22.5 0.00 0.00 0.00 34 1011.5
20260503212926 15 219 9.7 22.5 0.00 0.00 0.00 34 1011.4
20260503211921 15 222 9.7 24.1 0.00 0.00 0.00 33 1011.3
20260503210917 15 205 14.5 24.1 0.00 0.00 0.00 35 1011.5
20260503205859 15 219 9.7 20.9 0.00 0.00 0.00 37 1011.6
20260503205348 14 245 9.7 22.5 0.00 0.00 0.00 40 1011.6
20260503204835 14 217 12.9 27.4 0.00 0.00 0.00 36 1011.6
20260503204322 15 210 12.9 27.4 0.00 0.00 0.00 35 1011.9
20260503203811 15 203 9.7 24.1 0.00 0.00 0.00 35 1011.9
20260503203259 14 217 11.3 20.9 0.00 0.00 0.00 35 1011.9
20260503202748 15 253 9.7 19.3 0.00 0.00 0.00 34 1012.0
20260503201744 15 233 9.7 22.5 0.00 0.00 0.00 36 1012.0
20260503201245 15 222 9.7 22.5 0.00 0.00 0.00 35 1012.2
20260503200237 15 247 9.7 27.4 0.00 0.00 0.00 33 1012.2
20260503195735 15 276 9.7 22.5 0.00 0.00 0.00 40 1012.6
20260503195235 15 308 8.0 20.9 0.00 0.00 0.00 39 1012.6
20260503194735 14 239 8.0 20.9 0.00 0.00 0.00 39 1012.4
20260503194233 14 237 9.7 24.1 0.00 0.00 0.00 37 1012.6
20260503192735 15 267 12.9 32.2 0.00 0.00 0.00 37 1012.9
20260503192236 15 217 9.7 25.7 0.00 0.00 0.00 36 1012.9
20260503191733 15 268 9.7 20.9 0.00 0.00 0.00 39 1012.9
20260503191223 14 308 11.3 25.7 0.00 0.00 0.00 35 1013.1
20260503190717 14 292 11.3 30.6 0.00 0.00 0.00 37 1013.1
20260503190212 14 238 9.7 30.6 0.00 0.00 0.00 37 1013.1
20260503185706 14 225 9.7 24.1 0.00 0.00 0.00 45 1013.2
20260503185159 14 226 11.3 24.1 0.00 0.00 0.00 36 1013.2
20260503184653 14 219 12.9 33.8 0.00 0.00 0.00 40 1013.2
20260503184144 13 214 14.5 33.8 0.00 0.00 0.00 39 1013.3
20260503183633 13 242 12.9 24.1 0.00 0.00 0.00 39 1013.3
20260503183123 13 223 11.3 24.1 0.00 0.00 0.00 39 1013.3
20260503182613 13 257 11.3 32.2 0.00 0.00 0.00 38 1013.4
20260503182109 13 209 14.5 32.2 0.00 0.00 0.00 39 1013.4
20260503181557 13 198 11.3 24.1 0.00 0.00 0.00 39 1013.4
20260503181047 13 218 11.3 24.1 0.00 0.00 0.00 38 1013.7
20260503180537 13 287 12.9 24.1 0.00 0.00 0.00 40 1013.7
20260503180029 14 220 9.7 22.5 0.00 0.00 0.00 41 1013.7
20260503175523 13 229 6.4 22.5 0.00 0.00 0.00 40 1013.9
20260503175016 13 235 11.3 32.2 0.00 0.00 0.00 42 1013.9
20260503174514 13 242 14.5 32.2 0.00 0.00 0.00 40 1013.8
20260503174008 13 217 11.3 24.1 0.00 0.00 0.00 44 1014.0
20260503173501 13 217 11.3 24.1 0.00 0.00 0.00 41 1014.0
20260503172952 13 235 11.3 25.7 0.00 0.00 0.00 41 1014.1
20260503172443 13 255 12.9 25.7 0.00 0.00 0.00 40 1014.1
20260503171936 13 227 11.3 25.7 0.00 0.00 0.00 41 1014.1
20260503171433 13 314 9.7 25.7 0.00 0.00 0.00 46 1014.2
20260503170928 12 283 11.3 25.7 0.00 0.00 0.00 44 1014.2
20260503170421 12 230 12.9 22.5 0.00 0.00 0.00 41 1014.1
20260503160212 11 260 9.7 25.7 0.00 0.00 0.00 41 1014.6
20260503150648 10 270 12.9 29.0 0.00 0.00 0.00 44 1014.8
20260503131030 5 285 6.4 17.7 0.00 0.00 0.00 79 1014.9
20260503130528 5 286 6.4 14.5 0.00 0.00 0.00 82 1014.8
20260503110810 0 319 0.0 1.6 0.00 0.00 0.00 94 1013.5
20260503110303 -1 319 0.0 0.0 0.00 0.00 0.00 94 1013.5
20260503090311 0 319 0.0 0.0 0.00 0.00 0.00 93 1012.8
20260503081611 0 319 0.0 0.0 0.00 0.00 0.00 92 1012.8
20260503081104 0 319 0.0 0.0 0.00 0.00 0.00 92 1012.8
20260503080551 0 319 0.0 0.0 0.00 0.00 0.00 91 1012.8
20260503072814 0 319 0.0 0.0 0.00 0.00 0.00 90 1012.2
20260503072230 0 319 0.0 0.0 0.00 0.00 0.00 90 1012.2
20260503071712 0 319 0.0 0.0 0.00 0.00 0.00 89 1012.2
20260503071209 0 319 0.0 0.0 0.00 0.00 0.00 89 1012.2
20260503070648 0 319 0.0 0.0 0.00 0.00 0.00 89 1012.2
20260503070147 0 319 0.0 0.0 0.00 0.00 0.00 88 1012.2
20260503054220 1 319 0.0 0.0 0.00 0.00 0.00 83 1012.6
20260503053206 1 319 0.0 0.0 0.00 0.00 0.00 82 1012.6